[[{"header":{"parameterUnit":"m.s-1","parameterCategory":1,"la1":30.2991,"la2":30.254,"lo1":-89.0895,"lo2":-89.0444,"dy":0.0017,"dx":0.0017,"nx":28,"ny":28,"refTime":"2024-06-12T21:00:00:Z","depth":0,"parameterNumber":2,"parameterNumberName":"U-component_of_WINDS"},"data":[0,0,0,0,0,0,0,0,0,0,0,0,0,0,0,0,0,0,0,0,0,0,0,0,0,0,0,0,0,0,0,0,0,0,0,0,0,0,0,0,0,0,0,0,0,0,0,0,0,0,0,0,0,0,0,0,0,0,0.9299,0.93,0,0.9348,0.9348,0.9349,0.9376,0.9376,0.9377,0.9377,0.9424,0.9425,0.9427,0,0,0,0,0,0,0,0,0,0,0,0,0,0.9228,0.9229,0.9299,0.93,0.93,0.9347,0.9348,0.9349,0.9376,0.9376,0.9377,0.9377,0.9424,0.9425,0.9427,0,0,0,0,0,0,0,0,0,0,0,0,0,0.9266,0.923,0.9299,0.932,0.9322,0.9347,0.9348,0.9349,0.9376,0.9376,0.9377,0.9377,0.9423,0.9425,0.9427,0.9434,0,0,0.9432,0.9433,0,0,0,0,0,0,0,0,0.9264,0.9268,0.9316,0.9319,0.9321,0.9356,0.9341,0.9378,0.9376,0.9356,0.9377,0.9377,0.9401,0.9405,0.9414,0.9437,0.9439,0.9432,0.9433,0.9434,0.9435,0,0,0,0,0,0,0,0.9261,0.9266,0.9318,0.9317,0.932,0.9326,0.9331,0.9348,0.9377,0.9358,0.936,0.9365,0.9403,0.9412,0.9415,0.9439,0.9432,0.9434,0.9435,0.9436,0.947,0.9469,0,0,0,0,0,0,0.9255,0.9264,0.9317,0.932,0.9292,0.9327,0.9333,0.9345,0.9377,0.9382,0.9365,0.9366,0.9409,0.9413,0.9417,0.9427,0.9434,0.9436,0.9437,0.947,0.9469,0.9469,0,0,0,0,0,0,0.9254,0.926,0.9315,0.9293,0.93,0.9328,0.9341,0.9346,0.9355,0.9383,0.9388,0.9369,0.9409,0.9414,0.943,0.9429,0.9437,0.9438,0.947,0.947,0.9469,0.9447,0,0,0,0,0,0,0.9252,0.9259,0.9263,0.9292,0.9301,0.9328,0.9341,0.9346,0.9358,0.936,0.9388,0.9392,0.941,0.9427,0.9431,0.9431,0.944,0.947,0.947,0.9469,0.9448,0.9447,0.9445,0,0,0,0,0,0.9249,0.9255,0.9263,0.9269,0.9307,0.9328,0.9333,0.9353,0.9358,0.9361,0.9379,0.9392,0.9428,0.9428,0.9433,0.9434,0.947,0.947,0.947,0.9449,0.9447,0.9445,0,0,0,0,0,0,0.9224,0.9259,0.9269,0.9285,0.9303,0.9332,0.9338,0.935,0.9367,0.9368,0.9392,0.9398,0.941,0.9424,0.9423,0.9442,0.945,0.9451,0.9433,0.9431,0.943,0.9426,0.9441,0,0,0,0,0,0.9221,0.9236,0.9265,0.9276,0.9285,0.9309,0.9319,0.9333,0.9353,0.9361,0.938,0.9398,0.9413,0.9423,0.9439,0.945,0.9456,0.9453,0.9452,0.945,0.945,0.9456,0.9455,0.9468,0.9468,0.9468,0,0,0.9213,0.9234,0.9242,0.9271,0.9288,0.9301,0.9316,0.933,0.934,0.9363,0.9379,0.9393,0.9414,0.9428,0.9434,0.9439,0.9448,0.945,0.9448,0.9449,0.9455,0.9454,0.9453,0.9468,0.9468,0.9468,0,0,0.9207,0.9225,0.9236,0.9251,0.9275,0.9291,0.9294,0.9321,0.9331,0.9348,0.9364,0.9376,0.9403,0.9417,0.9428,0.9426,0.9437,0.943,0.9421,0.9426,0.9425,0.9424,0.9423,0.9422,0.943,0.943,0.943,0,0.9195,0.9218,0.9239,0.9253,0.9264,0.9285,0.9295,0.9309,0.9337,0.9344,0.9349,0.9382,0.9398,0.9414,0.9414,0.9422,0.9425,0.9427,0.9424,0.9423,0.9423,0.9421,0.9421,0.9429,0.9429,0.9429,0.9429,0,0.9201,0.9216,0.9221,0.9248,0.926,0.9272,0.9294,0.9304,0.9316,0.9331,0.9346,0.9367,0.9386,0.9391,0.9403,0.9409,0.9411,0.9419,0.9428,0.942,0.9419,0.9419,0.9428,0.9428,0.9428,0.9429,0,0,0.9181,0.9219,0.922,0.9232,0.9259,0.9271,0.9283,0.9302,0.931,0.9328,0.9337,0.9359,0.9367,0.9379,0.9393,0.9397,0.9393,0.9405,0.9406,0.9402,0.9398,0.9391,0.939,0.9401,0.9401,0.9401,0.9396,0,0.9179,0.9202,0.9221,0.9237,0.925,0.9269,0.9279,0.9297,0.9311,0.9323,0.9339,0.9353,0.9363,0.937,0.9376,0.9392,0.9392,0.9393,0.9409,0.9409,0.9403,0.939,0.9383,0.9378,0.9396,0.9396,0.9396,0,0.9179,0.9196,0.9213,0.9238,0.9244,0.9253,0.9272,0.9284,0.9303,0.9313,0.9326,0.934,0.9352,0.9359,0.9376,0.9376,0.9383,0.9392,0.9392,0.9394,0.9402,0.9391,0.9377,0.9376,0.9396,0.9396,0.9396,0,0.9162,0.919,0.9203,0.9212,0.9242,0.9247,0.926,0.9279,0.9289,0.9305,0.9312,0.9329,0.9338,0.935,0.9368,0.9372,0.9382,0.9391,0.939,0.9389,0.9391,0.939,0.9377,0.9397,0.9397,0.9397,0.9397,0,0.9157,0.9167,0.9196,0.9204,0.9214,0.9235,0.9245,0.9259,0.9276,0.9286,0.9303,0.9313,0.9336,0.9347,0.9362,0.9372,0.9376,0.9384,0.9387,0.9382,0.9381,0.9387,0.9388,0.9396,0.9396,0.9396,0.9396,0,0.9141,0.9161,0.9176,0.9202,0.9209,0.9215,0.9237,0.9245,0.926,0.9273,0.9277,0.9299,0.9314,0.9333,0.9353,0.9363,0.9371,0.9377,0.9365,0.9367,0.9364,0.9363,0.9353,0.9353,0.9373,0.9373,0.9373,0,0.9136,0.9144,0.917,0.9179,0.919,0.9204,0.9214,0.9234,0.9244,0.9266,0.9271,0.9286,0.93,0.9322,0.9339,0.9355,0.9361,0.9356,0.9363,0.9357,0.936,0.9359,0.9359,0.9354,0.9354,0.9354,0.9354,0,0.9125,0.9134,0.9149,0.9166,0.9178,0.9193,0.9208,0.9213,0.9237,0.9247,0.9261,0.9272,0.9292,0.9307,0.9324,0.9336,0.9348,0.9351,0.9351,0.9346,0.9338,0.9341,0.9359,0.9351,0.9351,0.9352,0.9352,0.9352,0.9114,0.9121,0.9141,0.9156,0.9169,0.9183,0.9191,0.9207,0.922,0.9238,0.9249,0.9263,0.928,0.9305,0.9316,0.9326,0.9331,0.9332,0.9332,0.9332,0.9329,0.9336,0.933,0.933,0.933,0.933,0.933,0,0.9104,0.9117,0.9131,0.9151,0.9163,0.9173,0.919,0.9199,0.9211,0.9226,0.9239,0.9255,0.9269,0.9288,0.9303,0.9308,0.9314,0.9311,0.9311,0.9313,0.9325,0.9323,0.9306,0.9306,0.9306,0.9306,0.9306,0.9306,0.91,0.9112,0.9123,0.9142,0.9155,0.9169,0.9177,0.9189,0.9202,0.9219,0.9231,0.9243,0.9259,0.9275,0.9288,0.9293,0.9297,0.9293,0.9299,0.931,0.9312,0.9314,0.9312,0.9294,0.9294,0.9286,0.9286,0.9286]},{"header":{"parameterUnit":"m.s-1","parameterCategory":1,"la1":30.2991,"la2":30.254,"lo1":-89.0895,"lo2":-89.0444,"dy":0.0017,"dx":0.0017,"nx":28,"ny":28,"refTime":"2024-06-12T21:00:00:Z","depth":0,"parameterNumber":3,"parameterNumberName":"V-component_of_WINDS"},"data":[0,0,0,0,0,0,0,0,0,0,0,0,0,0,0,0,0,0,0,0,0,0,0,0,0,0,0,0,0,0,0,0,0,0,0,0,0,0,0,0,0,0,0,0,0,0,0,0,0,0,0,0,0,0,0,0,0,0,2.5476,2.5476,0,2.5445,2.5444,2.5444,2.5423,2.5423,2.5423,2.5423,2.5387,2.5386,2.5385,0,0,0,0,0,0,0,0,0,0,0,0,0,2.5515,2.5514,2.5476,2.5476,2.5475,2.5445,2.5444,2.5444,2.5423,2.5423,2.5423,2.5423,2.5387,2.5386,2.5385,0,0,0,0,0,0,0,0,0,0,0,0,0,2.5492,2.5514,2.5476,2.5461,2.546,2.5445,2.5444,2.5444,2.5423,2.5423,2.5423,2.5423,2.5387,2.5386,2.5385,2.5381,0,0,2.5381,2.5381,0,0,0,0,0,0,0,0,2.5493,2.5491,2.5464,2.5462,2.546,2.5438,2.5445,2.5423,2.5423,2.5437,2.5423,2.5422,2.5404,2.5401,2.5395,2.5379,2.5378,2.5381,2.538,2.538,2.5379,0,0,0,0,0,0,0,2.5495,2.5492,2.5463,2.5463,2.5461,2.5455,2.5452,2.544,2.5422,2.5436,2.5434,2.5431,2.5403,2.5397,2.5394,2.5377,2.5381,2.538,2.5379,2.5379,2.5357,2.5357,0,0,0,0,0,0,2.5499,2.5493,2.5464,2.5463,2.5477,2.5455,2.5451,2.5445,2.5422,2.5418,2.5431,2.543,2.5399,2.5396,2.5393,2.5387,2.538,2.5378,2.5378,2.5357,2.5357,2.5357,0,0,0,0,0,0,2.55,2.5497,2.5466,2.5477,2.5473,2.5454,2.5448,2.5445,2.5439,2.5418,2.5414,2.5429,2.5399,2.5395,2.5385,2.5386,2.5378,2.5377,2.5357,2.5357,2.5357,2.5376,0,0,0,0,0,0,2.5501,2.5497,2.5496,2.5478,2.5473,2.5459,2.5448,2.5444,2.5437,2.5435,2.5415,2.5411,2.5398,2.5387,2.5383,2.5384,2.5376,2.5356,2.5357,2.5357,2.5375,2.5377,2.5378,0,0,0,0,0,2.5503,2.5502,2.5496,2.5493,2.5471,2.5459,2.5456,2.5442,2.5437,2.5436,2.5423,2.5412,2.5386,2.5386,2.5382,2.5382,2.5356,2.5357,2.5357,2.5374,2.5376,2.5378,0,0,0,0,0,0,2.552,2.5499,2.5493,2.5486,2.5475,2.5455,2.5453,2.5444,2.5433,2.5431,2.5413,2.5409,2.5401,2.539,2.539,2.5377,2.537,2.537,2.5384,2.5386,2.5388,2.539,2.5375,0,0,0,0,0,2.5523,2.5516,2.5498,2.5494,2.5488,2.5472,2.5466,2.5456,2.5443,2.5438,2.5424,2.541,2.5399,2.5392,2.5381,2.5374,2.5369,2.5372,2.5374,2.5375,2.5375,2.537,2.5371,2.5359,2.5359,2.5359,0,0,2.5529,2.5517,2.5513,2.5497,2.5487,2.5479,2.5468,2.546,2.5453,2.5436,2.5426,2.5415,2.5399,2.5391,2.5386,2.5382,2.5377,2.5375,2.5377,2.5375,2.5371,2.5372,2.5373,2.5359,2.5359,2.5359,0,0,2.5536,2.5526,2.5522,2.5513,2.5498,2.5487,2.5486,2.5469,2.5462,2.5452,2.5438,2.543,2.5411,2.5401,2.5393,2.5397,2.5386,2.5394,2.5401,2.5397,2.5398,2.5399,2.54,2.5401,2.5393,2.5393,2.5394,0,2.5545,2.5534,2.552,2.5514,2.5507,2.5492,2.5487,2.5478,2.546,2.5455,2.5451,2.5428,2.5416,2.5405,2.5406,2.54,2.5398,2.5395,2.5399,2.54,2.5401,2.5401,2.5402,2.5394,2.5394,2.5394,2.5394,0,2.5545,2.5538,2.5536,2.552,2.5513,2.5507,2.5492,2.5487,2.5478,2.5467,2.5457,2.5443,2.5428,2.5425,2.5416,2.5412,2.541,2.5403,2.5395,2.5403,2.5404,2.5404,2.5396,2.5395,2.5395,2.5395,0,0,2.5561,2.554,2.5539,2.5532,2.5516,2.5509,2.5502,2.549,2.5485,2.5473,2.5467,2.5452,2.5446,2.5436,2.5426,2.5422,2.5427,2.5415,2.5415,2.5418,2.5422,2.5427,2.5428,2.542,2.542,2.542,2.5423,0,2.5565,2.5554,2.5542,2.5534,2.5527,2.5514,2.5508,2.5497,2.5487,2.5478,2.5467,2.5457,2.5449,2.5444,2.544,2.5427,2.5427,2.5427,2.5413,2.5412,2.5417,2.5428,2.5434,2.5437,2.5423,2.5423,2.5423,0,2.5568,2.5559,2.5551,2.5536,2.5532,2.5527,2.5515,2.5508,2.5495,2.5488,2.5478,2.5468,2.5459,2.5453,2.5441,2.5441,2.5434,2.5427,2.5427,2.5425,2.5418,2.5426,2.5438,2.5439,2.5424,2.5424,2.5424,0,2.558,2.5566,2.5559,2.5554,2.5536,2.5533,2.5525,2.5512,2.5505,2.5494,2.549,2.5477,2.547,2.5461,2.5447,2.5444,2.5436,2.5428,2.5429,2.5429,2.5427,2.5427,2.5438,2.5424,2.5424,2.5424,2.5424,0,2.5586,2.5582,2.5564,2.556,2.5555,2.5541,2.5536,2.5527,2.5515,2.5509,2.5496,2.549,2.5472,2.5463,2.5452,2.5443,2.544,2.5434,2.5431,2.5435,2.5436,2.543,2.5429,2.5424,2.5424,2.5424,2.5424,0,2.5598,2.5587,2.5579,2.5563,2.5559,2.5556,2.5542,2.5537,2.5527,2.5519,2.5516,2.55,2.5489,2.5474,2.5458,2.5451,2.5444,2.5439,2.5449,2.5447,2.5448,2.5448,2.5455,2.5455,2.5442,2.5442,2.5442,0,2.5602,2.5599,2.5583,2.5579,2.5572,2.5564,2.5558,2.5545,2.5538,2.5524,2.552,2.5509,2.5499,2.5483,2.5469,2.5456,2.5451,2.5455,2.5449,2.5453,2.5451,2.5451,2.5451,2.5456,2.5456,2.5456,2.5456,0,2.5611,2.5606,2.5598,2.5588,2.5581,2.5573,2.5563,2.556,2.5544,2.5538,2.5527,2.552,2.5505,2.5493,2.548,2.547,2.546,2.5459,2.5458,2.5461,2.5467,2.5464,2.5452,2.5458,2.5458,2.5458,2.5458,2.5458,2.5619,2.5615,2.5604,2.5596,2.5588,2.558,2.5575,2.5565,2.5556,2.5544,2.5536,2.5526,2.5513,2.5494,2.5486,2.5477,2.5473,2.5472,2.5472,2.5472,2.5473,2.5469,2.5474,2.5474,2.5474,2.5474,2.5474,0,2.5627,2.5619,2.5612,2.56,2.5593,2.5586,2.5576,2.557,2.5562,2.5552,2.5543,2.5531,2.552,2.5506,2.5494,2.549,2.5485,2.5487,2.5487,2.5485,2.5477,2.5479,2.5491,2.5491,2.5491,2.5491,2.5491,2.5491,2.563,2.5624,2.5617,2.5607,2.5599,2.559,2.5585,2.5577,2.5569,2.5556,2.5548,2.5539,2.5527,2.5514,2.5504,2.55,2.5496,2.5499,2.5494,2.5487,2.5485,2.5484,2.5485,2.5499,2.5499,2.5502,2.5502,2.5502]}]]